Time,TemperatureF,DewpointF,PressureIn,WindDirection,WindDirectionDegrees,WindSpeedMPH,WindSpeedGustMPH,Humidity,HourlyPrecipIn,Conditions,Clouds,dailyrainin,SoftwareType,DateUTC
2013-10-25 00:24:00,35.4,29.3,29.77,NE,40,2.4,5.6,78,0.00,,,0.00,WSDL version 420,2013-10-25 04:24:00,
2013-10-25 00:54:00,35.4,29.3,29.80,ENE,64,2.1,6.0,78,0.00,,,0.00,WSDL version 420,2013-10-25 04:54:00,
2013-10-25 01:24:00,35.4,29.6,29.80,East,84,2.5,3.6,79,0.00,,,0.00,WSDL version 420,2013-10-25 05:24:00,
2013-10-25 01:54:00,35.4,29.6,29.80,NNW,328,3.0,6.0,79,0.00,,,0.00,WSDL version 420,2013-10-25 05:54:00,
2013-10-25 02:24:00,35.2,29.7,29.80,NNE,31,3.2,5.4,80,0.00,,,0.00,WSDL version 420,2013-10-25 06:24:00,
2013-10-25 02:54:00,35.2,29.5,29.83,East,84,3.2,4.3,80,0.00,,,0.00,WSDL version 420,2013-10-25 06:54:00,
2013-10-25 03:24:00,35.2,29.4,29.80,SSE,165,3.4,4.7,79,0.00,,,0.00,WSDL version 420,2013-10-25 07:24:00,
2013-10-25 03:54:00,35.1,29.2,29.83,NNW,341,2.6,4.5,79,0.00,,,0.00,WSDL version 420,2013-10-25 07:54:00,
2013-10-25 04:24:00,35.1,29.1,29.85,SSE,163,2.8,8.1,78,0.00,,,0.00,WSDL version 420,2013-10-25 08:24:00,
2013-10-25 04:54:00,35.1,29.1,29.85,ENE,68,1.5,3.6,79,0.00,,,0.00,WSDL version 420,2013-10-25 08:54:00,
2013-10-25 05:24:00,34.9,29.0,29.85,North,11,1.6,6.3,79,0.00,,,0.00,WSDL version 420,2013-10-25 09:24:00,
2013-10-25 05:54:00,34.9,29.0,29.85,WNW,301,2.4,5.4,79,0.00,,,0.00,WSDL version 420,2013-10-25 09:54:00,
2013-10-25 06:24:00,34.9,28.7,29.85,NNW,328,2.5,4.3,78,0.00,,,0.00,WSDL version 420,2013-10-25 10:24:00,
2013-10-25 06:54:00,34.7,28.6,29.88,NW,308,3.0,4.9,78,0.00,,,0.00,WSDL version 420,2013-10-25 10:54:00,
2013-10-25 07:39:00,34.5,27.7,29.88,WSW,238,1.1,3.8,76,0.00,,,0.00,WSDL version 420,2013-10-25 11:39:00,
2013-10-25 07:45:00,34.5,27.7,29.88,NNE,28,1.7,3.4,76,0.00,,,0.00,WSDL version 420,2013-10-25 11:45:00,
2013-10-25 07:49:00,34.5,27.7,29.88,NE,55,1.7,3.4,76,-99.99,,,-99.99,WSDL version 420,2013-10-25 11:49:00,
2013-10-25 08:03:00,34.7,27.6,29.91,North,350,2.0,4.9,75,0.00,,,0.00,WSDL version 420,2013-10-25 12:03:00,
2013-10-25 08:13:00,34.7,27.6,29.91,WNW,289,1.0,3.1,75,0.00,,,0.00,WSDL version 420,2013-10-25 12:13:00,
2013-10-25 08:23:00,34.7,27.6,29.91,North,11,1.6,7.4,75,0.00,,,0.00,WSDL version 420,2013-10-25 12:23:00,
2013-10-25 08:43:00,35.0,27.9,29.91,West,270,0.6,4.3,75,0.00,,,0.00,WSDL version 420,2013-10-25 12:43:00,
2013-10-25 09:03:00,35.4,28.1,29.91,NNW,329,3.3,4.7,74,0.00,,,0.00,WSDL version 420,2013-10-25 13:03:00,
2013-10-25 09:23:00,35.5,27.5,29.88,NNW,347,2.1,6.7,72,0.00,,,0.00,WSDL version 420,2013-10-25 13:23:00,
2013-10-25 09:55:00,36.1,26.4,29.91,North,10,3.2,6.3,67,0.00,,,0.00,WSDL version 420,2013-10-25 13:55:00,
2013-10-25 10:15:00,37.1,26.9,29.91,WNW,283,3.1,6.9,66,0.00,,,0.00,WSDL version 420,2013-10-25 14:15:00,
2013-10-25 10:35:00,38.2,25.3,29.88,North,351,2.9,14.1,60,0.00,,,0.00,WSDL version 420,2013-10-25 14:35:00,
2013-10-25 10:55:00,38.8,24.0,29.91,North,353,4.8,8.7,55,0.00,,,0.00,WSDL version 420,2013-10-25 14:55:00,
2013-10-25 11:15:00,39.2,23.5,29.91,NNW,331,5.2,8.7,54,0.00,,,0.00,WSDL version 420,2013-10-25 15:15:00,
2013-10-25 11:35:00,39.1,23.8,29.91,North,349,5.9,9.4,53,0.00,,,0.00,WSDL version 420,2013-10-25 15:35:00,
2013-10-25 11:55:00,38.4,21.9,29.91,North,4,5.4,11.4,51,0.00,,,0.00,WSDL version 420,2013-10-25 15:55:00,
2013-10-25 12:15:00,37.6,21.1,29.91,SW,214,2.7,7.6,51,0.00,,,0.00,WSDL version 420,2013-10-25 16:15:00,
2013-10-25 12:35:00,37.8,21.3,29.91,WNW,302,5.0,7.8,51,0.00,,,0.00,WSDL version 420,2013-10-25 16:35:00,
2013-10-25 12:55:00,37.4,20.9,29.91,NW,318,4.7,7.8,51,0.00,,,0.00,WSDL version 420,2013-10-25 16:55:00,
2013-10-25 13:15:00,37.8,21.3,29.91,NNW,333,4.4,7.8,51,0.00,,,0.00,WSDL version 420,2013-10-25 17:15:00,
2013-10-25 13:35:00,37.3,21.3,29.91,NNW,332,6.2,8.1,52,0.00,,,0.00,WSDL version 420,2013-10-25 17:35:00,
2013-10-25 13:55:00,36.8,20.4,29.91,NNW,335,5.4,11.0,51,0.00,,,0.00,WSDL version 420,2013-10-25 17:55:00,
2013-10-25 14:15:00,37.2,21.0,29.91,NNW,342,2.8,7.6,52,0.00,,,0.00,WSDL version 420,2013-10-25 18:15:00,
2013-10-25 14:35:00,37.0,20.3,29.91,NNE,19,3.7,8.5,50,-99.99,,,-99.99,WSDL version 420,2013-10-25 18:35:00,
2013-10-25 14:55:00,37.3,20.2,29.94,NNW,338,6.0,12.3,49,-99.99,,,-99.99,WSDL version 420,2013-10-25 18:55:00,
2013-10-25 15:15:00,38.9,20.1,29.94,WNW,286,4.9,10.5,47,-99.99,,,-99.99,WSDL version 420,2013-10-25 19:15:00,
2013-10-25 15:35:00,37.0,19.5,29.94,WNW,295,3.0,7.8,49,0.00,,,0.00,WSDL version 420,2013-10-25 19:35:00,
2013-10-25 15:57:00,36.9,20.0,29.94,NW,324,4.4,8.5,50,0.00,,,0.00,WSDL version 420,2013-10-25 19:57:00,
2013-10-25 16:17:00,36.7,20.1,29.97,NNW,330,3.5,6.5,51,0.00,,,0.00,WSDL version 420,2013-10-25 20:17:00,
2013-10-25 16:37:00,37.2,20.3,29.97,NNW,331,4.5,7.4,50,0.00,,,0.00,WSDL version 420,2013-10-25 20:37:00,
2013-10-25 16:57:00,37.0,20.0,29.97,North,354,3.9,7.6,50,0.00,,,0.00,WSDL version 420,2013-10-25 20:57:00,
2013-10-25 17:17:00,36.3,19.5,29.97,NNW,333,4.2,7.8,50,0.00,,,0.00,WSDL version 420,2013-10-25 21:17:00,
2013-10-25 17:37:00,35.8,19.5,29.97,NNW,344,2.4,4.0,51,0.00,,,0.00,WSDL version 420,2013-10-25 21:37:00,
2013-10-25 17:57:00,35.6,19.7,29.97,West,270,3.0,4.0,52,0.00,,,0.00,WSDL version 420,2013-10-25 21:57:00,
2013-10-25 18:17:00,35.6,20.2,29.97,SE,141,1.0,2.7,53,0.00,,,0.00,WSDL version 420,2013-10-25 22:17:00,
2013-10-25 18:37:00,35.6,20.6,29.97,ESE,106,1.3,2.9,54,0.00,,,0.00,WSDL version 420,2013-10-25 22:37:00,
2013-10-25 18:57:00,35.6,21.0,30.00,East,86,1.5,3.4,55,0.00,,,0.00,WSDL version 420,2013-10-25 22:57:00,
2013-10-25 19:17:00,35.8,21.6,30.00,East,84,1.5,2.9,56,0.00,,,0.00,WSDL version 420,2013-10-25 23:17:00,
2013-10-25 19:37:00,35.8,21.6,30.00,NNE,30,2.3,4.3,56,0.00,,,0.00,WSDL version 420,2013-10-25 23:37:00,
2013-10-25 19:57:00,36.0,21.8,30.00,South,186,1.3,4.0,56,0.00,,,0.00,WSDL version 420,2013-10-25 23:57:00,
2013-10-25 20:18:00,35.6,21.1,30.00,NNW,338,2.5,5.8,55,0.00,,,0.00,WSDL version 420,2013-10-26 00:18:00,
2013-10-25 20:38:00,34.9,20.7,30.00,West,273,0.1,3.8,56,0.00,,,0.00,WSDL version 420,2013-10-26 00:38:00,
2013-10-25 20:58:00,34.9,21.2,30.00,WSW,252,0.2,2.5,57,0.00,,,0.00,WSDL version 420,2013-10-26 00:58:00,
2013-10-25 21:18:00,35.1,20.8,30.00,ESE,105,1.4,4.9,55,0.00,,,0.00,WSDL version 420,2013-10-26 01:18:00,
2013-10-25 21:38:00,35.1,20.3,30.00,NNE,23,2.6,6.0,54,0.00,,,0.00,WSDL version 420,2013-10-26 01:38:00,
2013-10-25 21:58:00,35.0,20.4,30.00,WNW,283,2.2,4.7,55,0.00,,,0.00,WSDL version 420,2013-10-26 01:58:00,
2013-10-25 22:18:00,34.7,20.2,30.03,WNW,299,3.0,3.8,55,0.00,,,0.00,WSDL version 420,2013-10-26 02:18:00,
2013-10-25 22:38:00,34.5,20.4,30.03,SSE,151,3.5,5.4,56,-99.99,,,-99.99,WSDL version 420,2013-10-26 02:38:00,
2013-10-25 22:58:00,34.3,20.3,30.03,WNW,293,2.8,5.4,56,-99.99,,,-99.99,WSDL version 420,2013-10-26 02:58:00,
2013-10-25 23:18:00,33.9,20.3,30.03,NNW,340,0.3,2.9,57,0.00,,,0.00,WSDL version 420,2013-10-26 03:18:00,
2013-10-25 23:38:00,33.7,20.1,30.03,SW,235,0.5,2.5,57,0.00,,,0.00,WSDL version 420,2013-10-26 03:38:00,
2013-10-25 23:58:00,33.2,20.0,30.03,WSW,251,2.1,3.4,58,0.00,,,0.00,WSDL version 420,2013-10-26 03:58:00,